sat.trackr.live / text

‹ back to catalog

STARLINK-36971

NORAD 68165 · 2026-049Z

PAYLOAD ACTIVE UNKNOWN

§ Identity

Operator
Country
US
Launch date
2026-03-13
Launch site
AFWTR
Launch vehicle
Mass (kg)
RCS (m²)

Purposes: comms

External: N2YO · Heavens-Above · Gunter

§ Orbital elements

Epoch: 2026-09-20T00:55:35.517792Z

Period
93.91 min
Inclination
97.2853°
Eccentricity
0.0001830
Mean motion
15.33453636 rev/d
Perigee alt
464.3 km
Apogee alt
466.8 km
Semi-major
6,843.7 km
B*
3.8480e-4
RAAN
283.0517°
Arg perigee
91.7541°
Mean anomaly
268.3911°
Rev number
2,943

§ Raw data

STARLINK-369711 68165U 26049Z   26263.03860553  .00012372  00000+0  38480-3 0  99962 68165  97.2853 283.0517 0001830  91.7541 268.3911 15.33453636 29434

JSON: /api/v1/satellites/68165 · /tle

For live sub-satellite position, see the globe view (requires WebGL).

§ Visibility from observer

Set your observer location to see the next 7 days of passes ≥ 10°. The values pass through the URL so the page stays shareable.

No JS? Fill the form by hand. The geolocation button needs JavaScript.